Location: Praha
(50.0830°N, 14.4670°E)
Time: 05:50:09
(UTC+02:00)

ISS - Pass Details

Date: 30 March 2020
Orbit: 417 x 423 km, 51.6° (Epoch: 29 March)

Event Time Altitude Azimuth Distance (km) Brightness Sun altitude
Rises 20:55:53 0° 286° (WNW) 2,362 1.9 -13.8°
Reaches altitude 10° 20:57:59 10° 285° (WNW) 1,497 0.4 -14.1°
Maximum altitude 21:01:20 84° 200° (SSW) 425 -3.8 -14.6°
Enters shadow 21:02:43 33° 113° (ESE) 729 -3.1 -14.8°
